Tracking 29059 objects as of 19-Jun-2024
HD Live streaming from Space Station
objects crossing your sky now

WESTFORD NEEDLES

Track WESTFORD NEEDLES now!
10-day predictions
WESTFORD NEEDLES is classified as:


NORAD ID: 19059
Int'l Code: 1963-014EG
Perigee: 3,577.1 km
Apogee: 3,706.6 km
Inclination: 87.3 °
Period: 166.2 minutes
Semi major axis: 10012 km
RCS: 0.205 m2 (medium)
Launch date: May 9, 1963
Source: United States (US)
Launch site: AIR FORCE WESTERN TEST RANGE (AFWTR)
Your satellite tracking list
Your tracking list is empty




NASA's NSSDC Master Catalog

Two Line Element Set (TLE):
1 19059U 63014EG  24153.49435385  .00000117  00000-0  52698-1 0  9994
2 19059  87.3147 258.4771 0064669  79.9740 280.8405  8.66499119149180
Source of the keplerian elements: AFSPC